Header for Extended Forecast Station List Page

Search by: ID | Name | Date | Parm | Value | Avg | % Avg
Sort by: ID | Name | Date | Parm | Value | Avg | % Avg

Enter search or view all records.

Click on id for station plot
#IDNameDateParmValueAvg% Avg
0HWRI1BIG LOST-AT HOWELL RANCH NEAR CHILLY11-28-2022DISCHARGE (KAF)171893
1MACI1BIG LOST-MACKAY RESERVOIR NEAR MACKAY11-28-2022INFLOW (KAF)313882
2HALI1BIG WOOD-AT HAILEY11-28-2022DISCHARGE (KAF)303880
3MAGI1BIG WOOD-MAGIC DAM11-28-2022INFLOW (KAF)242981
4BITM8BITTERROOT-NEAR MISSOULA11-28-2022DISCHARGE (KAF)16021076
5BONM8BLACKFOOT-NEAR BONNER11-28-2022DISCHARGE (KAF)11114079
6BIGI1BOISE-AT GLENWOOD BRIDGE11-28-2022DISCHARGE (KAF)12765196
7LUCI1BOISE-LUCKY PEAK DAM11-28-2022INFLOW (KAF)16418987
8PARI1BOISE-NEAR PARMA11-28-2022DISCHARGE (KAF)267202132
9HOTI1BRUNEAU-NEAR HOT SPRINGS11-28-2022DISCHARGE (KAF)133340
10BULO3BULLY CREEK-BULLY CREEK DAM11-28-2022INFLOW (KAF)184407
11BUDW1BUMPING-BUMPING LAKE DAM11-28-2022INFLOW (KAF)153937
12CHDW1CHELAN-LAKE CHELAN DAM11-28-2022INFLOW (KAF)6220231
13ABOM8CLARK FORK-ABOVE MISSOULA11-28-2022DISCHARGE (KAF)28233584
14DLGM8CLARK FORK-AT DEER LODGE11-28-2022DISCHARGE (KAF)435284
15SRGM8CLARK FORK-AT ST REGIS11-28-2022DISCHARGE (KAF)54674773
16BELM8CLARK FORK-BELOW MISSOULA11-28-2022DISCHARGE (KAF)44355680
17CABI1CLARK FORK-CABINET GORGE DAM11-28-2022INFLOW (KAF)2673357575
18NOXM8CLARK FORK-NOXON RAPIDS DAM11-28-2022INFLOW (KAF)2421312777
19DRMM8CLARK FORK-NR DRUMMOND11-28-2022DISCHARGE (KAF)11112688
20CLUW1CLE ELUM-CLE ELUM LAKE11-28-2022INFLOW (KAF)4911542
21ORFI1CLEARWATER-AT OROFINO11-28-2022DISCHARGE (KAF)417100242
22SPDI1CLEARWATER-AT SPALDING11-28-2022DISCHARGE (KAF)1040188455
23COEI1COEUR D ALENE-COEUR D ALENE LAKE11-28-2022INFLOW (KAF)670120656
24CIBW1COLUMBIA-AT INTL BOUNDARY11-28-2022DISCHARGE (KAF)162261992381
25BONO3COLUMBIA-BONNEVILLE DAM11-28-2022INFLOW (KAF)295753849777
26CHJW1COLUMBIA-CHIEF JOSEPH DAM11-28-2022INFLOW (KAF)201962386185
27GCDW1COLUMBIA-GRAND COULEE DAM11-28-2022INFLOW (KAF)172262169679
28JDAO3COLUMBIA-JOHN DAY DAM11-28-2022INFLOW (KAF)286083612479
29MCDW1COLUMBIA-MCNARY DAM11-28-2022INFLOW (KAF)270923444279
30PRWW1COLUMBIA-PRIEST RAPIDS DAM11-28-2022INFLOW (KAF)208672559482
31RRHW1COLUMBIA-ROCKY REACH DAM11-28-2022INFLOW (KAF)207212489983
32TDAO3COLUMBIA-THE DALLES DAM11-28-2022INFLOW (KAF)287883674778
33WANW1COLUMBIA-WANAPUM DAM11-28-2022INFLOW (KAF)208672552282
34WELW1COLUMBIA-WELLS DAM11-28-2022INFLOW (KAF)204452450783
35DEDI1DEADWOOD-NEAR LOWMAN11-28-2022INFLOW (KAF)121963
36MODO3DESCHUTES-AT MOODY NR BIGGS11-28-2022DISCHARGE (KAF)991141570
37ARDW1ENTIAT-NEAR ARDENVOIR11-28-2022DISCHARGE (KAF)132652
38CHEI1FALL RIVER-NEAR CHESTER11-28-2022DISCHARGE (KAF)10111390
39CFMM8FLATHEAD-AT COLUMBIA FALLS11-28-2022DISCHARGE (KAF)83995388
40KERM8FLATHEAD-SELI’Š KSANKA QLISPE’ DAM11-28-2022INFLOW (KAF)939141266
41TRYO3GRANDE RONDE-TROY11-28-2022DISCHARGE (KAF)28550357
42REXI1HENRYS FORK-AT REXBURG11-28-2022DISCHARGE (KAF)35043680
43ANTI1HENRYS FORK-AT ST. ANTHONY11-28-2022DISCHARGE (KAF)30138079
44IPDI1HENRYS FORK-ISLAND PARK DAM11-28-2022INFLOW (KAF)7810575
45HODO3HOOD-NEAR TUCKER BRIDGE11-28-2022DISCHARGE (KAF)267248108
46SERO3JOHN DAY-AT SERVICE CK11-28-2022DISCHARGE (KAF)20836457
47KADW1KACHESS-KACHESS DAM11-28-2022INFLOW (KAF)285156
48LAUW1KETTLE-AT LAURIER11-28-2022DISCHARGE (KAF)6515043
49PITW1KLICKITAT-NEAR PITT11-28-2022DISCHARGE (KAF)31837286
50BFEI1KOOTENAI-AT BONNERS FERRY11-28-2022STAGE (FT)MMM
51LEOI1KOOTENAI-AT LEONIA11-28-2022DISCHARGE (KAF)2045240385
52LYDM8KOOTENAI-LIBBY DAM11-28-2022INFLOW (KAF)61183373
53LWRI1LITTLE WOOD-LITTLE WOOD DAM11-28-2022INFLOW (KAF)81553
54BERO3MALHEUR-AGENCY VALLEY DAM11-28-2022INFLOW (KAF)132356
55WRMO3MALHEUR-WARM SPRINGS DAM11-28-2022INFLOW (KAF)174143
56MYKO3MCKAY CREEK-NEAR PILOT ROCK11-28-2022DISCHARGE (KAF)4035114
57PATW1METHOW-NEAR PATEROS11-28-2022DISCHARGE (KAF)7310768
58WGCM8MF FLATHEAD-NEAR WEST GLACIER11-28-2022DISCHARGE (KAF)4615929
59CLFW1NACHES-NEAR CLIFFDEL11-28-2022DISCHARGE (KAF)5413141
60NACW1NACHES-NEAR NACHES11-28-2022DISCHARGE (KAF)5317929
61DWRI1NF CLEARWATER-DWORSHAK DAM11-28-2022INFLOW (KAF)45579957
62FCFM8NF FLATHEAD-NEAR COLUMBIA FALLS11-28-2022DISCHARGE (KAF)11517765
63MONO3NF JOHN DAY-AT MONUMENT11-28-2022DISCHARGE (KAF)13023156
64CSDI1NF PAYETTE-CASCADE DAM11-28-2022INFLOW (KAF)5710555
65TONW1OKANOGAN-NEAR TONASKET11-28-2022DISCHARGE (KAF)19131261
66OWYO3OWYHEE-OWYHEE DAM11-28-2022INFLOW (KAF)13715489
67EMMI1PAYETTE-NEAR EMMETT11-28-2022DISCHARGE (KAF)29236081
68ALFW1PEND OREILLE-ALBENI FALLS DAM11-28-2022INFLOW (KAF)2965405373
69HOPI1PEND OREILLE-PEND OREILLE LAKE NR HOPE11-28-2022LAKE ELEVATION (FT)MMM
70PIHI1PORTNEUF-AT POCATELLO11-28-2022DISCHARGE (KAF)405572
71PRTI1PRIEST-NEAR PRIEST RIVER11-28-2022DISCHARGE (KAF)12423852
72RCCM8ROCK CREEK-NEAR CLINTON11-28-2022DISCHARGE (KAF)4846105
73WHBI1SALMON-AT WHITEBIRD11-28-2022DISCHARGE (KAF)846107079
74ARAI1SF BOISE-ANDERSON RANCH DAM11-28-2022INFLOW (KAF)658576
75HHWM8SF FLATHEAD-HUNGRY HORSE DAM11-28-2022INFLOW (KAF)12524851
76PLDI1SF SNAKE-PALISADES DAM11-28-2022INFLOW (KAF)46758380
77SIFI1SNAKE-AB EAGLE ROCK NR IDAHO FALLS11-28-2022DISCHARGE (KAF)67167599
78AFRI1SNAKE-AMERICAN FALLS RESERVOIR11-28-2022INFLOW (KAF)12041203100
79SNAI1SNAKE-AT BLACKFOOT11-28-2022DISCHARGE (KAF)58659499
80MILI1SNAKE-AT MILNER11-28-2022DISCHARGE (KAF)M55M
81WEII1SNAKE-AT WEISER11-28-2022DISCHARGE (KAF)2737298092
82SWAI1SNAKE-BELOW SWAN FALLS11-28-2022DISCHARGE (KAF)1727187892
83BRNI1SNAKE-BROWNLEE DAM11-28-2022INFLOW (KAF)2975321293
84IHDW1SNAKE-ICE HARBOR DAM11-28-2022INFLOW (KAF)5615771673
85JLKW4SNAKE-JACKSON LAKE AT DAM11-28-2022INFLOW (KAF)7911668
86LGSW1SNAKE-LITTLE GOOSE DAM11-28-2022INFLOW (KAF)5187755669
87LGDW1SNAKE-LOWER GRANITE DAM11-28-2022INFLOW (KAF)5188752069
88LMNW1SNAKE-LOWER MONUMENTAL DAM11-28-2022INFLOW (KAF)5615768673
89ALPW4SNAKE-NEAR ALPINE11-28-2022DISCHARGE (KAF)29137578
90ANAW1SNAKE-NEAR ANATONE11-28-2022DISCHARGE (KAF)4157554775
91BFTI1SNAKE-NEAR BLACKFOOT11-28-2022DISCHARGE (KAF)588582101
92HEII1SNAKE-NEAR HEISE11-28-2022DISCHARGE (KAF)496383129
93JKSW4SNAKE-NEAR JACKSON11-28-2022DISCHARGE (KAF)24231577
94SHYI1SNAKE-NEAR SHELLEY11-28-2022DISCHARGE (KAF)65167996
95LLKW1SPOKANE-AT LONGLAKE11-28-2022INFLOW (KAF)879158356
96SPOW1SPOKANE-AT SPOKANE11-28-2022DISCHARGE (KAF)609131446
97SJMI1ST JOE-AT ST MARIES11-28-2022STAGE (FT)MMM
98SATI1ST MARIES-NEAR SANTA11-28-2022DISCHARGE (KAF)237232
99STRM8ST. REGIS-NEAR ST. REGIS11-28-2022DISCHARGE (KAF)194739
100TNAW1TEANAWAY-BELOW FORKS11-28-2022DISCHARGE (KAF)275846
101TEAI1TETON-NEAR ST. ANTHONY11-28-2022DISCHARGE (KAF)719773
102RILW1TIETON-RIMROCK LAKE NEAR RIMROCK11-28-2022INFLOW (KAF)427656
103PDTO3UMATILLA-AT PENDLETON11-28-2022DISCHARGE (KAF)11914284
104GIBO3UMATILLA-NEAR GIBBON11-28-2022DISCHARGE (KAF)505591
105UMAO3UMATILLA-NEAR UMATILLA11-28-2022DISCHARGE (KAF)11613486
106TCHW1WALLA WALLA-NEAR TOUCHET11-28-2022DISCHARGE (KAF)17719690
107WSRI1WEISER-NEAR WEISER11-28-2022DISCHARGE (KAF)15918984
108PESW1WENATCHEE-AT PESHASTIN11-28-2022DISCHARGE (KAF)13633840
109UNDW1WHITE SALMON-NEAR UNDERWOOD11-28-2022DISCHARGE (KAF)22128478
110RIDI1WILLOW CREEK-RIRIE DAM11-28-2022INFLOW (KAF)71448
111EASW1YAKIMA-AT EASTON11-28-2022DISCHARGE (KAF)448154
112KIOW1YAKIMA-AT KIONA11-28-2022DISCHARGE (KAF)47282957
113UMTW1YAKIMA-AT UMTANUM11-28-2022DISCHARGE (KAF)20334160
114KEDW1YAKIMA-KEECHELUS LAKE11-28-2022INFLOW (KAF)295356
115PARW1YAKIMA-NEAR PARKER11-28-2022DISCHARGE (KAF)34657760